Vertical_Velocity
-0 -2 1 -0 -3 1 0 -3 -4 -2 -1 -1 5 1 -1 -2 -1 -1 0 -0 -1 -2 -1 -1 1 -0 1 2 -1 -2 -4 1 -4 1 -2 3 2 0 1 3 -3 -1 2
1 -1 -0 -0 -3 -2 -3 1 0 -1 0 1 -1 -4 -1 -3 -3 -3 -5 -3 -2 -1 -2 0 2 1 3 1 -2 0 -1 -4 -4 -2 -4 -3 -1 1 -1 -2 3 0 0
-2 1 -0 -1 -0 -2 -2 0 -0 -0 -1 -2 -1 1 -3 -2 -1 -1 -2 -4 -2 -3 -1 -2 -4 -3 -1 -0 1 1 -0 -0 0 -1 -5 0 0 1 -1 -2 -3 -1 2
-2 -0 1 -1 -1 -2 -1 0 -2 -1 -1 1 -1 -3 -1 -1 -1 -1 -1 -2 -0 1 -1 -1 -2 -3 -1 -0 -2 -1 1 -2 0 -1 1 -2 2 3 2 -2 -2 -1 3
-2 -2 -1 0 -2 -1 -1 -1 -1 -2 -3 -5 -0 0 -1 -2 1 -1 -1 2 1 -1 1 -3 2 -1 -1 1 0 1 1 0 1 2 1 2 0 -1 1 4 -4 1 -1
-2 -1 -2 -1 -2 -2 -0 -1 -1 -2 -0 -1 -3 -2 0 3 2 1 -2 -3 -2 -0 -1 1 1 0 -0 -4 -2 -0 1 1 -3 1 2 -0 2 -1 -1 -3 4 0 1
-2 -2 -1 -2 -1 -3 1 0 -0 -1 -0 -0 -0 -1 -2 -2 -3 -3 -2 -1 -1 -0 -2 -1 -2 -1 -0 1 -0 1 -1 1 1 -3 6 -7 -3 3 1 2 -0 1 1
-2 1 -2 -1 -1 -3 1 0 0 -1 0 1 1 -0 -1 -1 -0 -1 -1 -1 -2 -1 -0 -1 1 -0 -2 -1 -2 -1 -1 2 0 -1 -2 1 -0 -1 -1 -1 -0 -0 -1
-1 0 -1 2 -2 -1 -2 1 -1 -1 -0 -1 -2 -1 -1 -0 -1 -1 0 1 -0 -1 -1 -3 -0 1 1 0 0 1 0 1 1 -3 -3 1 1 2 -0 1 -1 -3 -0
0 -2 1 -2 1 -3 0 1 -1 1 -0 1 0 -0 -1 -2 -2 -1 -3 -3 -1 -2 0 -1 -3 -0 1 2 1 0 0 1 0 3 -1 -0 -0 5 5 -0 -0 -2 -1
-4 0 -1 -0 -0 -3 0 2 -1 -1 -0 -1 -0 -1 -1 0 1 -1 -0 -0 -1 -0 -2 1 -0 -1 -2 -1 2 1 1 1 1 3 3 2 2 -2 6 3 1 0 -0
1 1 -0 -0 -1 -0 -1 0 -1 -1 -1 -2 -1 -3 -1 -2 -0 -1 -1 1 -2 0 1 1 1 1 -1 -0 2 1 -0 1 2 3 1 1 0 1 1 0 1 6 1
1 -1 1 -2 -1 3 -3 -1 -0 -0 2 0 0 -0 -0 1 -1 0 -1 -0 0 -2 2 -1 2 -0 -1 -2 -0 -0 1 -1 1 2 1 2 3 1 0 0 1 -1 8
-1 -2 -1 -1 -0 -2 -2 -2 1 -1 0 -0 -3 0 1 0 -2 -1 1 -1 -1 -0 -0 -1 0 -2 -0 -1 -0 -1 0 3 1 3 -3 1 4 2 -2 -1 -3 -3 -1
-1 0 -0 -1 -1 -1 -0 1 -1 1 0 -0 1 0 -1 0 -1 -1 1 -2 -3 -3 1 -2 -2 -3 -0 -1 -0 -1 -1 1 5 -1 1 0 3 -2 1 1 2 5 -2
-1 -2 -1 -0 -1 -0 -2 -3 -3 -0 1 -2 -1 -1 -2 2 0 -2 -1 -0 -2 -2 -2 0 1 -2 -3 -1 0 0 -0 -0 -3 1 -2 2 -4 3 -0 1 3 -2 1
-2 -1 -1 2 1 -0 0 1 2 -0 -2 -1 0 -0 -1 0 0 1 -2 -1 -1 -2 0 0 1 2 2 1 -2 1 -2 -0 2 0 0 -3 -1 1 -0 1 -1 -0 -0
-1 -0 -0 -1 2 -0 -0 -2 -1 -0 0 -2 -1 -1 -1 1 -1 -2 -1 -1 -1 -3 -2 -1 -2 -1 -1 0 1 1 -0 -1 1 1 -0 -2 1 -1 1 1 -1 0 -0
-1 -1 0 0 -1 -1 -1 1 -0 -1 -0 1 1 1 -1 -2 -1 1 1 -2 0 -1 -1 -0 -0 1 0 2 2 3 1 2 -0 -0 1 2 0 -2 0 -1 -0 -0 -0
-2 -3 -3 -3 -1 0 1 0 -1 -2 -1 -2 -2 -2 -3 -1 -1 -1 -1 0 -2 -3 -3 -4 -2 -3 -1 -1 -2 -0 1 -0 0 -1 -2 -1 -2 -1 -2 -2 -2 -1 0
-2 -3 -3 -3 -3 -3 -3 -2 -2 -2 -2 -2 -2 -1 0 -0 -1 -2 -2 -3 -2 -1 -3 -3 -3 -2 1 1 -1 1 -1 2 -2 -2 -3 -1 -1 -2 -1 -1 -2 -2 1
2 3 1 -0 -1 -1 -2 -2 -1 -1 -1 -0 -1 -1 -2 -2 -0 1 1 -2 -3 -2 -3 -3 -4 -5 0 -3 -1 -3 0 4 3 2 2 -1 0 0 1 -1 -1 -0 -1
-1 1 1 1 1 2 2 1 -1 -1 -1 -1 -1 -1 -0 -0 -1 -2 -1 -0 -0 -2 -2 -2 -2 0 -4 0 -2 -3 1 -1 -3 -2 -3 -3 -3 -2 -1 -0 1 -1 -1
3 1 0 -0 1 0 -1 -1 2 3 2 -1 -1 -1 -1 -0 -0 -0 -0 -1 -1 -1 -1 -0 -1 -1 -2 -3 -2 -3 -2 -2 -4 -4 0 -3 -2 -2 -2 -2 -3 -3 -1
2 -0 1 3 1 -1 -4 -4 -1 0 2 3 1 0 -1 -1 -1 -2 -1 -0 0 1 1 0 -0 -0 -2 -2 -2 -1 -1 -1 -1 -2 -1 -12 1 -3 -1 -3 -2 -2 -4
-0 -3 -2 -1 -1 -0 0 2 1 -6 -2 -1 1 -3 -2 -1 -0 -1 -1 -1 -1 0 1 1 0 0 -1 -1 -2 -2 -2 -2 -1 -1 -3 -1 -3 -8 -6 -1 -2 -1 -3
Height
1563 1565 1564 1566 1566 1566 1565 1564 1564 1563 1563 1562 1561 1560 1558 1557 1556 1555 1554 1553 1553 1552 1551 1550 1549 1548 1547 1546 1544 1544 1544 1543 1543 1542 1542 1542 1541 1541 1540 1539 1538 1538 1538
1562 1564 1565 1566 1567 1567 1567 1566 1565 1565 1565 1564 1562 1562 1561 1560 1559 1558 1557 1555 1554 1553 1552 1551 1551 1550 1549 1547 1546 1546 1546 1546 1546 1546 1545 1545 1545 1542 1542 1541 1540 1540 1540
1561 1563 1565 1566 1567 1567 1567 1568 1567 1567 1567 1565 1564 1564 1563 1562 1561 1560 1559 1558 1556 1555 1554 1553 1552 1551 1550 1549 1549 1548 1548 1548 1548 1548 1548 1548 1548 1545 1544 1543 1543 1543 1542
1561 1562 1563 1565 1566 1567 1567 1568 1568 1568 1567 1567 1566 1565 1564 1563 1563 1562 1560 1560 1559 1557 1556 1555 1554 1554 1553 1552 1550 1550 1549 1549 1550 1549 1550 1549 1548 1547 1546 1546 1546 1545 1544
1560 1562 1563 1564 1565 1566 1567 1568 1568 1568 1568 1568 1567 1567 1566 1565 1563 1562 1562 1560 1559 1559 1558 1557 1556 1554 1554 1552 1553 1552 1550 1551 1551 1552 1552 1550 1549 1548 1548 1547 1547 1546 1546
1560 1562 1563 1564 1565 1566 1567 1568 1568 1569 1568 1568 1568 1567 1566 1565 1564 1563 1561 1561 1560 1559 1558 1559 1556 1555 1554 1553 1553 1552 1552 1552 1553 1553 1552 1551 1549 1549 1549 1548 1548 1547 1547
1560 1562 1563 1564 1565 1566 1567 1567 1568 1568 1568 1568 1567 1567 1566 1565 1564 1563 1562 1561 1560 1559 1558 1558 1557 1556 1556 1554 1553 1553 1553 1553 1554 1554 1554 1550 1550 1550 1550 1549 1548 1548 1547
1561 1562 1563 1564 1565 1566 1566 1567 1567 1567 1567 1567 1566 1566 1566 1565 1564 1563 1562 1561 1560 1559 1558 1557 1557 1556 1555 1554 1554 1554 1553 1553 1554 1553 1553 1552 1551 1551 1550 1549 1548 1548 1548
1561 1562 1564 1564 1565 1565 1566 1566 1566 1566 1567 1566 1565 1565 1564 1563 1562 1562 1561 1560 1558 1558 1557 1557 1556 1556 1556 1554 1553 1553 1553 1553 1552 1552 1552 1552 1552 1552 1550 1550 1548 1548 1548
1561 1562 1563 1564 1564 1565 1566 1565 1565 1564 1564 1564 1564 1563 1563 1562 1561 1560 1560 1559 1558 1557 1556 1555 1555 1555 1554 1554 1553 1554 1553 1553 1553 1552 1551 1552 1552 1552 1551 1550 1549 1548 1548
1562 1563 1564 1564 1565 1566 1566 1565 1564 1564 1564 1563 1562 1562 1562 1561 1560 1559 1558 1557 1556 1556 1556 1555 1554 1553 1553 1553 1553 1552 1552 1552 1552 1552 1551 1551 1551 1550 1551 1549 1549 1548 1547
1561 1562 1564 1564 1565 1566 1565 1565 1565 1564 1564 1563 1562 1562 1561 1560 1559 1558 1557 1556 1555 1554 1553 1553 1552 1551 1551 1552 1551 1551 1550 1551 1551 1550 1550 1550 1550 1550 1551 1549 1549 1548 1546
1562 1563 1564 1566 1567 1566 1565 1566 1565 1565 1564 1563 1562 1561 1561 1559 1558 1557 1556 1555 1554 1553 1552 1550 1549 1548 1548 1549 1548 1549 1549 1549 1550 1549 1549 1548 1548 1548 1548 1548 1547 1547 1546
1561 1563 1564 1565 1566 1566 1566 1566 1565 1564 1564 1563 1562 1561 1560 1559 1558 1558 1556 1554 1554 1552 1551 1549 1548 1547 1546 1547 1546 1546 1547 1547 1547 1547 1545 1545 1546 1544 1544 1544 1544 1544 1544
1559 1561 1562 1564 1564 1565 1565 1565 1565 1564 1563 1563 1561 1561 1560 1559 1558 1557 1556 1555 1553 1554 1552 1549 1549 1547 1547 1545 1545 1544 1544 1546 1544 1544 1543 1543 1541 1540 1542 1541 1542 1542 1540
1559 1560 1562 1563 1564 1564 1565 1565 1566 1565 1563 1563 1563 1561 1561 1560 1558 1557 1557 1555 1554 1553 1553 1551 1548 1547 1547 1546 1545 1543 1543 1542 1542 1542 1539 1540 1537 1539 1538 1539 1539 1535 1538
1557 1560 1562 1563 1563 1563 1565 1565 1564 1564 1564 1564 1562 1562 1562 1561 1559 1558 1557 1556 1555 1554 1553 1551 1549 1548 1547 1545 1543 1543 1542 1542 1541 1540 1539 1536 1538 1538 1536 1536 1535 1535 1536
1556 1558 1560 1562 1562 1563 1563 1564 1564 1564 1563 1564 1564 1563 1563 1561 1560 1559 1558 1557 1555 1554 1554 1552 1551 1549 1547 1545 1543 1542 1541 1541 1541 1539 1537 1537 1537 1535 1535 1535 1532 1533 1532
1556 1558 1560 1561 1562 1563 1564 1564 1564 1564 1564 1564 1564 1563 1563 1562 1562 1560 1558 1557 1557 1555 1554 1553 1551 1549 1547 1545 1543 1542 1541 1541 1540 1540 1538 1537 1534 1534 1533 1532 1532 1531 1530
1553 1555 1557 1559 1561 1562 1563 1563 1564 1564 1564 1565 1565 1564 1564 1563 1561 1560 1559 1558 1557 1556 1554 1553 1552 1551 1548 1545 1543 1543 1542 1542 1541 1540 1538 1537 1536 1533 1531 1530 1530 1529 1528
1551 1553 1555 1557 1559 1561 1562 1563 1564 1564 1565 1565 1565 1565 1564 1563 1562 1561 1559 1558 1558 1556 1555 1553 1552 1552 1550 1546 1544 1544 1543 1541 1540 1541 1539 1537 1535 1533 1532 1530 1528 1528 1525
1547 1550 1551 1554 1556 1558 1560 1561 1562 1563 1564 1565 1564 1564 1563 1562 1561 1560 1559 1557 1557 1556 1555 1554 1554 1553 1551 1547 1544 1544 1545 1546 1544 1541 1539 1537 1536 1534 1532 1529 1528 1525 1524
1545 1547 1549 1551 1553 1555 1557 1558 1560 1561 1562 1563 1562 1562 1562 1562 1561 1560 1558 1558 1557 1556 1556 1556 1555 1553 1550 1548 1546 1548 1547 1547 1542 1540 1539 1537 1535 1533 1531 1529 1526 1525 1524
1544 1544 1546 1549 1551 1553 1554 1556 1557 1558 1559 1559 1560 1560 1560 1560 1559 1558 1557 1557 1556 1556 1556 1556 1554 1553 1550 1549 1548 1547 1547 1546 1544 1543 1540 1536 1534 1533 1531 1528 1526 1525 1523
1543 1542 1544 1547 1549 1551 1552 1554 1555 1556 1557 1557 1557 1558 1558 1558 1557 1557 1556 1556 1556 1556 1556 1555 1554 1552 1551 1550 1549 1548 1547 1544 1543 1543 1538 1534 1534 1531 1530 1527 1525 1523 1521
1539 1540 1542 1545 1547 1548 1550 1551 1552 1554 1556 1557 1556 1556 1557 1557 1556 1556 1556 1556 1556 1555 1555 1554 1553 1552 1551 1550 1549 1547 1546 1544 1542 1541 1538 1534 1531 1529 1527 1526 1524 1522 1520